Location: Unspecified
(0.0000°N, 0.0000°E)
Time: 04:25:17
(UTC+00:00)

Hubble Space Telescope - Visible Passes

Search period start: 29 March 2015 00:00
Search period end: 08 April 2015 00:00
Orbit: 543 x 547 km, 28.5° (Epoch: 28 March)

Date Brightness Start Highest point End Pass type
(mag) Time Alt. Az. Time Alt. Az. Time Alt. Az.
29 Mar 2.5 19:08:50 10° NNW 19:11:43 18° NNE 19:12:18 18° NE visible
30 Mar 2.1 18:59:57 10° NNW 19:03:26 26° NNE 19:04:49 21° ENE visible
31 Mar 1.5 18:51:15 10° NW 18:55:06 37° NNE 18:57:22 21° E visible
31 Mar 4.1 20:32:40 10° W 20:32:51 11° W 20:32:51 11° W visible
01 Apr 1.0 18:42:41 10° NW 18:46:45 55° NNE 18:49:55 16° ESE visible
01 Apr 3.8 20:24:46 10° W 20:25:24 13° WSW 20:25:24 13° WSW visible
02 Apr 3.4 04:59:26 10° S 05:01:07 12° SSE 05:02:56 10° SE visible
02 Apr 0.8 18:34:14 10° WNW 18:38:23 84° NNE 18:42:27 11° ESE visible
02 Apr 3.7 20:17:08 10° WSW 20:17:57 13° WSW 20:17:57 13° WSW visible
03 Apr 3.1 04:50:05 10° SSW 04:52:50 17° SSE 04:55:40 10° ESE visible
03 Apr 1.1 18:25:54 10° WNW 18:30:01 64° SSW 18:34:08 10° SE visible
03 Apr 3.7 20:10:01 10° SW 20:10:28 11° SW 20:10:28 11° SW visible
04 Apr 2.7 04:42:30 17° S 04:44:31 24° SSE 04:47:57 10° E visible
05 Apr 2.0 04:35:02 29° S 04:36:09 34° SSE 04:39:59 10° E visible
06 Apr 1.3 04:27:32 49° SSE 04:27:46 50° SSE 04:31:50 10° ENE visible
07 Apr 1.2 04:20:00 61° E 04:20:00 61° E 04:23:32 10° ENE visible
